Weather History for Pueblo, CO

Change the Weather History Date:

Thursday, October 11, 2012

  Actual Average Record
Temperature  
Mean Temperature 61 °F 54 °F  
Max Temperature 84 °F 71 °F 89 °F (1975)
Min Temperature 37 °F 36 °F 20 °F (1946)
Degree Days  
Heating Degree Days 4 12  
Month to date heating degree days 146 106  
Since 1 July heating degree days 200 204  
Cooling Degree Days 0 0  
Month to date cooling degree days 1 0  
Year to date cooling degree days 1322 894  
Growing Degree Days 10 (Base 50)    
Moisture  
Dew Point 30 °F    
Average Humidity 44    
Maximum Humidity 76    
Minimum Humidity 11    
Precipitation  
Precipitation 0.00 in 0.03 in 0.93 in (1969)
Month to date precipitation 0.05 0.27  
Year to date precipitation 4.46 11.27  
Snow  
Snow 0.00 in 0.00 in 2.60 in (1969)
Month to date snowfall 0.0 0.2  
Since 1 July snowfall 0.0 0.5  
Since 1 September snowfall 0.0 0.5  
Snow Depth 0.00 in    
Sea Level Pressure  
Sea Level Pressure 30.00 in    
Wind  
Wind Speed 9 mph (SSW)    
Max Wind Speed 29 mph    
Max Gust Speed 37 mph    
Visibility 10 miles    
Events      
T = Trace of Precipitation, MM = Missing Value Source: NWS Daily Summary

Daily Weather History Graph

Daily Weather History Graph

Search for Another Location

Airport:

Trip Planner

Search our weather history database for the weather conditions in past years. The results will help you decide how hot, cold, wet, or windy it might be!

Date:

Astronomy

Oct. 11, 2012 Rise Set
Actual Time 7:03 AM MDT 6:25 PM MDT
Civil Twilight 6:36 AM MDT 6:51 PM MDT
Nautical Twilight 6:06 AM MDT 7:22 PM MDT
Astronomical Twilight 5:35 AM MDT 7:52 PM MDT
Moon 2:47 AM MDT (10/11) 4:00 PM MDT (10/11)
Length of Visible Light 12h 14m
Length of Day
11h 21m
Waning Crescent, 18% of the Moon is Illuminated
Oct 11
Waning Crescent
Oct 15
New
Oct 21
First Quarter
Oct 29
Full
Nov 6
Last Quarter

Hourly Weather History & Observations

Time (MDT) Temp. Windchill Dew Point Humidity Pressure Visibility Wind Dir Wind Speed Gust Speed Precip Events Conditions
12:53 AM 43.0 °F 37.7 °F 30.9 °F 62% 29.95 in 10.0 mi West 9.2 mph - N/A   Clear
1:53 AM 41.0 °F 36.4 °F 30.0 °F 65% 29.94 in 10.0 mi WSW 6.9 mph - N/A   Clear
2:53 AM 39.9 °F 36.7 °F 30.9 °F 70% 29.93 in 10.0 mi West 4.6 mph - N/A   Clear
3:53 AM 37.9 °F 32.7 °F 28.9 °F 70% 29.94 in 10.0 mi WSW 6.9 mph - N/A   Clear
4:53 AM 39.0 °F 35.7 °F 28.9 °F 67% 29.94 in 10.0 mi WNW 4.6 mph - N/A   Clear
5:53 AM 39.9 °F 33.9 °F 30.9 °F 70% 29.96 in 10.0 mi SW 9.2 mph - N/A   Clear
6:53 AM 37.9 °F 30.9 °F 30.0 °F 73% 30.00 in 10.0 mi West 10.4 mph - N/A   Clear
7:53 AM 45.0 °F 41.2 °F 30.9 °F 58% 30.01 in 10.0 mi WNW 6.9 mph - N/A   Clear
8:53 AM 57.9 °F - 30.0 °F 35% 29.99 in 10.0 mi SW 4.6 mph - N/A   Clear
9:53 AM 61.0 °F - 32.0 °F 34% 29.99 in 10.0 mi WSW 8.1 mph - N/A   Clear
10:53 AM 71.1 °F - 28.9 °F 21% 29.96 in 10.0 mi West 3.5 mph - N/A   Clear
11:53 AM 75.0 °F - 27.0 °F 17% 29.93 in 10.0 mi Calm Calm - N/A   Clear
12:53 PM 79.0 °F - 24.1 °F 13% 29.91 in 10.0 mi Calm Calm - N/A   Clear
1:53 PM 81.0 °F - 23.0 °F 12% 29.88 in 10.0 mi Calm Calm - N/A   Clear
2:53 PM 82.0 °F - 23.0 °F 11% 29.87 in 10.0 mi ESE 8.1 mph - N/A   Clear
3:53 PM 82.4 °F - 23.0 °F 11% 30.00 in 10.0 mi ESE 12.7 mph - N/A   Clear
4:53 PM 77.0 °F - 33.1 °F 20% 29.91 in 8.0 mi East 26.5 mph 34.5 mph N/A   Clear
5:53 PM 69.1 °F - 35.1 °F 29% 29.98 in 10.0 mi East 25.3 mph 31.1 mph N/A   Clear
6:53 PM 63.0 °F - 35.1 °F 35% 30.06 in 10.0 mi ENE 18.4 mph 23.0 mph N/A   Clear
7:53 PM 59.0 °F - 35.1 °F 41% 30.14 in 10.0 mi ENE 13.8 mph - N/A   Clear
8:53 PM 55.9 °F - 34.0 °F 44% 30.17 in 10.0 mi ENE 11.5 mph - N/A   Clear
9:53 PM 52.0 °F - 34.0 °F 50% 30.18 in 10.0 mi ENE 10.4 mph - N/A   Clear
10:53 PM 50.0 °F - 33.1 °F 52% 30.16 in 10.0 mi East 10.4 mph - N/A   Clear
11:53 PM 48.2 °F - 33.8 °F 58% 30.29 in 10.0 mi ESE 5.8 mph - N/A   Clear